This is the latest recevied weather packets stored in our database for station/object SQ9SMC-13. If no packets are shown the sender has not sent any weather packets the latest 1 day(s).
| Time | Temp. | Humidity | Pressure | Rain* | Wind** | Luminosity | Snow |
|---|---|---|---|---|---|---|---|
| 1777987504 | 26.67° C | 21% | 1009 hPa | 0 mm | 1.34 m/s, 20° | 263 W/m² | - |
| 1777987204 | 26.67° C | 21% | 1009.1 hPa | 0 mm | 2.24 m/s, 53° | 252 W/m² | - |
| 1777986904 | 27.22° C | 21% | 1009.1 hPa | 0 mm | 1.34 m/s, 138° | 382 W/m² | - |
| 1777986604 | 27.22° C | 21% | 1008.9 hPa | 0 mm | 1.79 m/s, 266° | 284 W/m² | - |
| 1777986303 | 28.33° C | 20% | 1008.9 hPa | 0 mm | 1.34 m/s, 74° | 360 W/m² | - |
| 1777986003 | 27.78° C | 21% | 1009.2 hPa | 0 mm | 0.45 m/s, 16° | 443 W/m² | - |
| 1777985704 | 27.22° C | 20% | 1009.1 hPa | 0 mm | 1.34 m/s, 15° | 521 W/m² | - |
| 1777985403 | 26.67° C | 19% | 1009.3 hPa | 0 mm | 1.79 m/s, 328° | 292 W/m² | - |
| 1777985104 | 26.67° C | 20% | 1009.3 hPa | 0 mm | 2.24 m/s, 42° | 246 W/m² | - |
| 1777984807 | 27.22° C | 20% | 1009.1 hPa | 0 mm | 2.24 m/s, 253° | 299 W/m² | - |
| 1777984504 | 26.67° C | 20% | 1009.4 hPa | 0 mm | 2.24 m/s, 35° | 472 W/m² | - |
| 1777984205 | 26.67° C | 21% | 1009.2 hPa | 0 mm | 1.34 m/s, 40° | 283 W/m² | - |
| 1777983902 | 27.22° C | 21% | 1009.3 hPa | 0 mm | 2.68 m/s, 35° | 266 W/m² | - |
| 1777983603 | 26.67° C | 23% | 1009.5 hPa | 0 mm | 0.89 m/s, 87° | 330 W/m² | - |
| 1777983303 | 27.22° C | 22% | 1009.5 hPa | 0 mm | 2.24 m/s, 55° | 246 W/m² | - |
| 1777983015 | 27.78° C | 22% | 1009.3 hPa | 0 mm | 1.34 m/s, 68° | 485 W/m² | - |
| 1777982703 | 27.22° C | 22% | 1009.6 hPa | 0 mm | 2.24 m/s, 35° | 496 W/m² | - |
| 1777982403 | 27.22° C | 22% | 1009.4 hPa | 0 mm | 1.34 m/s, 24° | 523 W/m² | - |
| 1777982104 | 27.78° C | 22% | 1009.4 hPa | 0 mm | 3.13 m/s, 350° | 479 W/m² | - |
| 1777981803 | 27.78° C | 21% | 1009.7 hPa | 0 mm | 2.68 m/s, 0° | 737 W/m² | - |
| 1777981505 | 27.22° C | 23% | 1009.5 hPa | 0 mm | 3.13 m/s, 346° | 762 W/m² | - |
| 1777981207 | 26.67° C | 24% | 1009.8 hPa | 0 mm | 2.24 m/s, 347° | 456 W/m² | - |
| 1777980902 | 25.56° C | 24% | 1009.8 hPa | 0 mm | 0.89 m/s, 358° | 371 W/m² | - |
| 1777980604 | 25.56° C | 25% | 1009.8 hPa | 0 mm | 1.34 m/s, 15° | 264 W/m² | - |
| 1777980303 | 25.56° C | 24% | 1010 hPa | 0 mm | 3.13 m/s, 13° | 254 W/m² | - |
* Rain latest hour (hover to see other rain measurements)
** Current wind speed in m/s (hover to see current wind gust speed)